This is the latest recevied weather packets stored in our database for station/object N3WPH. If no packets are shown the sender has not sent any weather packets the latest 10 day(s).
| Time | Temp. | Humidity | Pressure | Rain* | Wind** | Luminosity | Snow |
|---|---|---|---|---|---|---|---|
| 1777743586 | 12.22° C | 45% | 1012.6 hPa | 0 mm | - | 372 W/m² | - |
| 1777743283 | 12.78° C | 47% | 1012.8 hPa | 0 mm | - | 916 W/m² | - |
| 1777742982 | 12.78° C | 46% | 1012.6 hPa | 0 mm | - | 858 W/m² | - |
| 1777742678 | 13.33° C | 51% | 1012.7 hPa | 0 mm | - | 836 W/m² | - |
| 1777742374 | 12.78° C | 52% | 1012.7 hPa | 0 mm | - | 881 W/m² | - |
| 1777742070 | 12.78° C | 45% | 1012.9 hPa | 0 mm | - | 856 W/m² | - |
| 1777741768 | 13.33° C | 44% | 1013 hPa | 0 mm | - | 934 W/m² | - |
| 1777741464 | 12.78° C | 49% | 1012.8 hPa | 0 mm | - | 927 W/m² | - |
| 1777741160 | 12.22° C | 44% | 1013 hPa | 0 mm | - | 904 W/m² | - |
| 1777740858 | 12.22° C | 51% | 1013.1 hPa | 0 mm | - | 901 W/m² | - |
| 1777740554 | 12.78° C | 46% | 1013.1 hPa | 0 mm | - | 878 W/m² | - |
| 1777740251 | 12.22° C | 50% | 1012.9 hPa | 0 mm | - | 294 W/m² | - |
| 1777739948 | 12.78° C | 48% | 1013.2 hPa | 0 mm | - | 880 W/m² | - |
| 1777739644 | 12.78° C | 50% | 1012.9 hPa | 0 mm | - | 849 W/m² | - |
| 1777739342 | 12.22° C | 53% | 1013 hPa | 0 mm | - | 846 W/m² | - |
| 1777739038 | 12.22° C | 54% | 1013.1 hPa | 0 mm | - | 214 W/m² | - |
| 1777738735 | 12.22° C | 56% | 1013.2 hPa | 0 mm | - | 866 W/m² | - |
| 1777738431 | 12.22° C | 50% | 1013.2 hPa | 0 mm | - | 830 W/m² | - |
| 1777738129 | 12.22° C | 56% | 1013.3 hPa | 0 mm | - | 820 W/m² | - |
| 1777737828 | 12.22° C | 59% | 1013.5 hPa | 0 mm | - | 874 W/m² | - |
| 1777737526 | 12.22° C | 58% | 1013.4 hPa | 0 mm | - | 882 W/m² | - |
| 1777737223 | 11.11° C | 56% | 1013.4 hPa | 0 mm | - | 859 W/m² | - |
| 1777736919 | 12.22° C | 56% | 1013.3 hPa | 0 mm | - | 171 W/m² | - |
| 1777736311 | 10.56° C | 63% | 1013.4 hPa | 0 mm | - | 786 W/m² | - |
| 1777736007 | 11.11° C | 60% | 1013.3 hPa | 0 mm | - | 151 W/m² | - |
* Rain latest hour (hover to see other rain measurements)
** Current wind speed in m/s (hover to see current wind gust speed)